Time,TemperatureF,DewpointF,PressureIn,WindDirection,WindDirectionDegrees,WindSpeedMPH,WindSpeedGustMPH,Humidity,HourlyPrecipIn,Conditions,Clouds,dailyrainin,SolarRadiationWatts/m^2,SoftwareType,DateUTC
2013-04-13 00:02:00,54.0,53.0,-100.00,NNE,31,0.0,2.0,95,0.00,,,0.00,0.000000,,2013-04-13 05:02:00,
2013-04-13 00:12:00,54.0,53.0,-100.00,NNE,31,0.0,2.0,95,0.00,,,0.00,0.000000,,2013-04-13 05:12:00,
2013-04-13 00:22:00,54.0,53.0,-100.00,NNE,31,0.0,2.0,95,0.00,,,0.00,0.000000,,2013-04-13 05:22:00,
2013-04-13 00:53:00,53.0,52.0,-100.00,ESE,122,0.0,2.0,96,0.00,,,0.00,0.000000,,2013-04-13 05:53:00,
2013-04-13 01:02:00,53.0,52.0,-100.00,ESE,122,0.0,2.0,96,0.00,,,0.00,0.000000,,2013-04-13 06:02:00,
2013-04-13 01:12:00,53.0,52.0,-100.00,ESE,122,0.0,2.0,96,0.00,,,0.00,0.000000,,2013-04-13 06:12:00,
2013-04-13 01:23:00,53.0,52.0,-100.00,ESE,122,0.0,2.0,96,0.00,,,0.00,0.000000,,2013-04-13 06:23:00,
2013-04-13 01:55:00,51.0,50.0,-100.00,East,83,0.0,3.0,96,0.00,,,-99.99,0.000000,,2013-04-13 06:55:00,
2013-04-13 02:05:00,51.0,50.0,-100.00,East,83,0.0,3.0,96,0.00,,,-99.99,0.000000,,2013-04-13 07:05:00,
2013-04-13 02:14:00,51.0,50.0,-100.00,East,83,0.0,3.0,96,0.00,,,-99.99,0.000000,,2013-04-13 07:14:00,
2013-04-13 02:24:00,51.0,50.0,-100.00,East,83,0.0,3.0,96,0.00,,,-99.99,0.000000,,2013-04-13 07:24:00,
2013-04-13 02:56:00,50.0,49.0,-100.00,WNW,290,0.0,3.0,96,0.00,,,0.00,0.000000,,2013-04-13 07:56:00,
2013-04-13 03:06:00,50.0,49.0,-100.00,WNW,290,0.0,3.0,96,0.00,,,0.00,0.000000,,2013-04-13 08:06:00,
2013-04-13 03:15:00,50.0,49.0,-100.00,WNW,290,0.0,3.0,96,0.00,,,0.00,0.000000,,2013-04-13 08:15:00,
2013-04-13 03:24:00,50.0,49.0,-100.00,WNW,290,0.0,3.0,96,0.00,,,0.00,0.000000,,2013-04-13 08:24:00,
2013-04-13 04:05:00,49.0,48.0,-100.00,NW,320,0.0,5.0,97,0.00,,,0.00,0.000000,,2013-04-13 09:05:00,
2013-04-13 04:14:00,49.0,48.0,-100.00,NW,320,0.0,5.0,97,0.00,,,0.00,0.000000,,2013-04-13 09:14:00,
2013-04-13 04:24:00,49.0,48.0,-100.00,NW,320,0.0,5.0,97,0.00,,,0.00,0.000000,,2013-04-13 09:24:00,
2013-04-13 04:55:00,48.0,47.0,-100.00,SSE,149,0.0,2.0,97,0.00,,,0.00,0.000000,,2013-04-13 09:55:00,
2013-04-13 05:05:00,48.0,47.0,-100.00,SSE,149,0.0,2.0,97,0.00,,,0.00,0.000000,,2013-04-13 10:05:00,
2013-04-13 05:15:00,48.0,47.0,-100.00,SSE,149,0.0,2.0,97,0.00,,,0.00,0.000000,,2013-04-13 10:15:00,
2013-04-13 05:24:00,48.0,47.0,-100.00,SSE,149,0.0,2.0,97,0.00,,,0.00,0.000000,,2013-04-13 10:24:00,
2013-04-13 05:55:00,48.0,47.0,-100.00,NNW,341,0.0,2.0,97,0.00,,,0.00,0.000000,,2013-04-13 10:55:00,
2013-04-13 06:06:00,48.0,47.0,-100.00,NNW,341,0.0,2.0,97,0.00,,,0.00,0.000000,,2013-04-13 11:06:00,
2013-04-13 06:13:00,48.0,47.0,-100.00,NNW,341,0.0,2.0,97,0.00,,,0.00,0.000000,,2013-04-13 11:13:00,
2013-04-13 06:24:00,48.0,47.0,-100.00,NNW,341,0.0,2.0,97,0.00,,,0.00,0.000000,,2013-04-13 11:24:00,
2013-04-13 07:08:00,47.0,46.0,-100.00,ENE,72,0.0,2.0,97,0.00,,,0.00,0.000000,,2013-04-13 12:08:00,
2013-04-13 07:15:00,47.0,46.0,-100.00,ENE,72,0.0,2.0,97,0.00,,,0.00,0.000000,,2013-04-13 12:15:00,
2013-04-13 07:24:00,47.0,46.0,-100.00,ENE,72,0.0,2.0,97,0.00,,,0.00,0.000000,,2013-04-13 12:24:00,
2013-04-13 07:55:00,54.0,53.0,-100.00,ENE,76,0.0,1.0,96,0.00,,,0.00,78.000000,,2013-04-13 12:55:00,
2013-04-13 08:05:00,54.0,53.0,-100.00,ENE,76,0.0,1.0,96,0.00,,,0.00,78.000000,,2013-04-13 13:05:00,
2013-04-13 08:15:00,54.0,53.0,-100.00,ENE,76,0.0,1.0,96,0.00,,,0.00,78.000000,,2013-04-13 13:15:00,
2013-04-13 09:04:00,58.0,52.0,-100.00,NE,34,1.0,6.0,81,0.00,,,0.00,235.000000,,2013-04-13 14:04:00,
2013-04-13 09:14:00,58.0,52.0,-100.00,NE,34,1.0,6.0,81,0.00,,,0.00,235.000000,,2013-04-13 14:14:00,
2013-04-13 09:23:00,58.0,52.0,-100.00,NE,34,1.0,6.0,81,0.00,,,0.00,235.000000,,2013-04-13 14:23:00,
2013-04-13 09:25:00,67.0,49.0,-100.00,ENE,58,5.0,13.0,53,0.00,,,0.00,457.000000,,2013-04-13 14:25:00,
2013-04-13 10:05:00,67.0,49.0,-100.00,ENE,58,5.0,13.0,53,0.00,,,0.00,457.000000,,2013-04-13 15:05:00,
2013-04-13 10:14:00,67.0,49.0,-100.00,ENE,58,5.0,13.0,53,0.00,,,0.00,457.000000,,2013-04-13 15:14:00,
2013-04-13 10:58:00,71.0,47.0,-100.00,ENE,61,6.0,12.0,42,0.00,,,0.00,809.000000,,2013-04-13 15:58:00,
2013-04-13 11:07:00,71.0,47.0,-100.00,ENE,61,6.0,12.0,42,0.00,,,0.00,809.000000,,2013-04-13 16:07:00,
2013-04-13 11:15:00,71.0,47.0,-100.00,ENE,61,6.0,12.0,42,0.00,,,0.00,809.000000,,2013-04-13 16:15:00,
2013-04-13 11:24:00,71.0,47.0,-100.00,ENE,61,6.0,12.0,42,0.00,,,0.00,809.000000,,2013-04-13 16:24:00,
2013-04-13 11:25:00,74.0,45.0,-100.00,East,83,6.0,13.0,35,0.00,,,0.00,996.000000,,2013-04-13 16:25:00,
2013-04-13 11:56:00,74.0,45.0,-100.00,East,83,6.0,13.0,35,0.00,,,0.00,996.000000,,2013-04-13 16:56:00,
2013-04-13 12:07:00,74.0,45.0,-100.00,East,83,6.0,13.0,35,0.00,,,0.00,996.000000,,2013-04-13 17:07:00,
2013-04-13 12:20:00,74.0,45.0,-100.00,East,83,6.0,13.0,35,0.00,,,0.00,996.000000,,2013-04-13 17:20:00,
2013-04-13 13:04:00,76.0,43.0,-100.00,NNE,27,6.0,12.0,31,0.00,,,0.00,1086.000000,,2013-04-13 18:04:00,
2013-04-13 13:15:00,76.0,43.0,-100.00,NNE,27,6.0,12.0,31,0.00,,,0.00,1086.000000,,2013-04-13 18:15:00,
2013-04-13 13:53:00,77.0,42.0,-100.00,ENE,62,6.0,10.0,29,0.00,,,0.00,910.000000,,2013-04-13 18:53:00,
2013-04-13 14:03:00,77.0,42.0,-100.00,ENE,62,6.0,10.0,29,0.00,,,0.00,910.000000,,2013-04-13 19:03:00,
2013-04-13 14:12:00,77.0,42.0,-100.00,ENE,62,6.0,10.0,29,0.00,,,0.00,910.000000,,2013-04-13 19:12:00,
2013-04-13 14:22:00,77.0,42.0,-100.00,ENE,62,6.0,10.0,29,0.00,,,0.00,910.000000,,2013-04-13 19:22:00,
2013-04-13 14:53:00,79.0,42.0,-100.00,East,93,6.0,13.0,27,0.00,,,0.00,1103.000000,,2013-04-13 19:53:00,
2013-04-13 15:02:00,79.0,42.0,-100.00,East,93,6.0,13.0,27,0.00,,,0.00,1103.000000,,2013-04-13 20:02:00,
2013-04-13 15:12:00,79.0,42.0,-100.00,East,93,6.0,13.0,27,0.00,,,0.00,1103.000000,,2013-04-13 20:12:00,
2013-04-13 15:22:00,79.0,42.0,-100.00,East,93,6.0,13.0,27,0.00,,,0.00,1103.000000,,2013-04-13 20:22:00,
2013-04-13 15:52:00,77.0,51.0,-100.00,SSE,155,7.0,15.0,40,0.00,,,0.00,972.000000,,2013-04-13 20:52:00,
2013-04-13 16:02:00,77.0,51.0,-100.00,SSE,155,7.0,15.0,40,0.00,,,0.00,972.000000,,2013-04-13 21:02:00,
2013-04-13 16:12:00,77.0,51.0,-100.00,SSE,155,7.0,15.0,40,0.00,,,0.00,972.000000,,2013-04-13 21:12:00,
2013-04-13 16:22:00,77.0,51.0,-100.00,SSE,155,7.0,15.0,40,0.00,,,0.00,972.000000,,2013-04-13 21:22:00,
2013-04-13 16:53:00,74.0,53.0,-100.00,SSE,156,8.0,14.0,48,0.00,,,0.00,709.000000,,2013-04-13 21:53:00,
2013-04-13 17:03:00,74.0,53.0,-100.00,SSE,156,8.0,14.0,48,0.00,,,0.00,709.000000,,2013-04-13 22:03:00,
2013-04-13 17:12:00,74.0,53.0,-100.00,SSE,156,8.0,14.0,48,0.00,,,0.00,709.000000,,2013-04-13 22:12:00,
2013-04-13 17:22:00,74.0,53.0,-100.00,SSE,156,8.0,14.0,48,0.00,,,0.00,709.000000,,2013-04-13 22:22:00,
2013-04-13 17:53:00,71.0,53.0,-100.00,SE,139,8.0,13.0,53,0.00,,,0.00,469.000000,,2013-04-13 22:53:00,
2013-04-13 18:02:00,71.0,53.0,-100.00,SE,139,8.0,13.0,53,0.00,,,0.00,469.000000,,2013-04-13 23:02:00,
2013-04-13 18:12:00,71.0,53.0,-100.00,SE,139,8.0,13.0,53,0.00,,,0.00,469.000000,,2013-04-13 23:12:00,
2013-04-13 18:22:00,71.0,53.0,-100.00,SE,139,8.0,13.0,53,0.00,,,0.00,469.000000,,2013-04-13 23:22:00,
2013-04-13 18:53:00,70.0,53.0,-100.00,SE,139,6.0,12.0,54,0.00,,,0.00,269.000000,,2013-04-13 23:53:00,
2013-04-13 19:02:00,70.0,53.0,-100.00,SE,139,6.0,12.0,54,0.00,,,0.00,269.000000,,2013-04-14 00:02:00,
2013-04-13 19:12:00,70.0,53.0,-100.00,SE,139,6.0,12.0,54,0.00,,,0.00,269.000000,,2013-04-14 00:12:00,
2013-04-13 19:22:00,70.0,53.0,-100.00,SE,139,6.0,12.0,54,0.00,,,0.00,269.000000,,2013-04-14 00:22:00,
2013-04-13 19:52:00,67.0,54.0,-100.00,SE,134,6.0,11.0,63,0.00,,,0.00,35.000000,,2013-04-14 00:52:00,
2013-04-13 20:02:00,67.0,54.0,-100.00,SE,134,6.0,11.0,63,0.00,,,0.00,35.000000,,2013-04-14 01:02:00,
2013-04-13 20:12:00,67.0,54.0,-100.00,SE,134,6.0,11.0,63,0.00,,,0.00,35.000000,,2013-04-14 01:12:00,
2013-04-13 20:22:00,67.0,54.0,-100.00,SE,134,6.0,11.0,63,0.00,,,0.00,35.000000,,2013-04-14 01:22:00,
2013-04-13 20:53:00,66.0,55.0,-100.00,South,173,4.0,7.0,67,0.00,,,0.00,0.000000,,2013-04-14 01:53:00,
2013-04-13 21:02:00,66.0,55.0,-100.00,South,173,4.0,7.0,67,0.00,,,0.00,0.000000,,2013-04-14 02:02:00,
2013-04-13 21:12:00,66.0,55.0,-100.00,South,173,4.0,7.0,67,0.00,,,0.00,0.000000,,2013-04-14 02:12:00,
2013-04-13 21:22:00,66.0,55.0,-100.00,South,173,4.0,7.0,67,0.00,,,0.00,0.000000,,2013-04-14 02:22:00,
2013-04-13 21:53:00,66.0,54.0,-100.00,SE,138,5.0,9.0,65,0.00,,,0.00,0.000000,,2013-04-14 02:53:00,
2013-04-13 22:02:00,66.0,54.0,-100.00,SE,138,5.0,9.0,65,0.00,,,0.00,0.000000,,2013-04-14 03:02:00,
2013-04-13 22:12:00,66.0,54.0,-100.00,SE,138,5.0,9.0,65,0.00,,,0.00,0.000000,,2013-04-14 03:12:00,
2013-04-13 22:22:00,66.0,54.0,-100.00,SE,138,5.0,9.0,65,0.00,,,0.00,0.000000,,2013-04-14 03:22:00,
2013-04-13 22:53:00,64.0,55.0,-100.00,ESE,110,1.0,9.0,73,0.00,,,0.00,0.000000,,2013-04-14 03:53:00,
2013-04-13 23:02:00,64.0,55.0,-100.00,ESE,110,1.0,9.0,73,0.00,,,0.00,0.000000,,2013-04-14 04:02:00,
2013-04-13 23:12:00,64.0,55.0,-100.00,ESE,110,1.0,9.0,73,0.00,,,0.00,0.000000,,2013-04-14 04:12:00,
2013-04-13 23:23:00,64.0,55.0,-100.00,ESE,110,1.0,9.0,73,0.00,,,0.00,0.000000,,2013-04-14 04:23:00,
2013-04-13 23:52:00,60.0,55.0,-100.00,NE,43,1.0,2.0,84,0.00,,,0.00,0.000000,,2013-04-14 04:52:00,